Regional Weather Roundup
Issued by NWS

Home | Current Version | Previous Version | Graphics & Text | Print | Product List | Glossary On
Versions: 1 2 3 4 5 6 7 8 9 10 11 12 13 14 15 16 17 18 19 20 21 22 23 24 25 26 27 28 29 30 31 32 33 34 35 36 37 38 39 40 41 42 43 44 45 46 47 48 49 50
000
ASUS45 KCYS 140810
RWRWY

WYOMING REGIONAL WEATHER ROUNDUP
NATIONAL WEATHER SERVICE CHEYENNE WY
200 AM MDT SUN SEP 14 2014

NOTE:  "FAIR" INDICATES FEW OR NO CLOUDS BELOW 12,000 FEET
WITH NO SIGNIFICANT WEATHER AND/OR OBSTRUCTIONS TO VISIBILITY.

WYZ001-140900-
YELLOWSTONE NATIONAL PARK

CITY           SKY/WX    TMP DP  RH WIND       PRES   REMARKS
LK YELLOWSTONE   N/A     30  26  85 CALM      30.19S
W YELLOWSTONE  NOT AVBL

$$
WYZ002>013-054>058-071-098>099-140900-
NORTHERN WYOMING

CITY           SKY/WX    TMP DP  RH WIND       PRES   REMARKS
JACKSON        CLEAR     36  28  75 N6        30.12S WCI  31
CODY           CLEAR     37  34  87 S7        30.11F WCI  32
GREYBULL       CLEAR     42  38  85 CALM      30.09F
WORLAND        CLEAR     40  37  89 S6        30.10S
SHERIDAN       CLEAR     36  33  89 CALM      30.13F
BUFFALO        CLEAR     40  33  76 E5        30.14F
GILLETTE       CLEAR     31  30  96 SW5       30.15F WCI  26
HULETT         FAIR      37  34  87 MISG      30.17
NEWCASTLE      FAIR      37  34  87 CALM      30.16

$$
WYZ014>020-022>026-101>103-140900-
CENTRAL WYOMING

CITY           SKY/WX    TMP DP  RH WIND       PRES   REMARKS
BIG PINEY      PTCLDY    38  24  57 E6        30.17S WCI  33
PINEDALE       SUNNY     32  28  86 W6        30.19R WCI  26
DUBOIS         FAIR      36  27  69 NW8       30.20S WCI  29
LANDER         PTCLDY    46  31  55 SW13      30.13F
RIVERTON       CLEAR     42  29  59 N7        30.13S
CASPER         CLEAR     35  30  82 NW9       30.15S WCI  28
DOUGLAS        CLEAR     41  34  76 E9        30.14F

$$
WYZ021-027>030-104>119-140900-
SOUTHERN WYOMING

CITY           SKY/WX    TMP DP  RH WIND       PRES   REMARKS
EVANSTON       PTCLDY    56  27  32 S6        30.19S
KEMMERER       PTSUNNY   45  30  57 N7        30.20S
FORT BRIDGER   FAIR      63  22  20 SW12      30.20S
ROCK SPRINGS   PTCLDY    58  22  24 N3        30.17R
DIXON          FAIR      42  34  73 E3        30.21S
RAWLINS        PTCLDY    50  25  37 CALM      30.16F
SARATOGA       FAIR      46  32  57 SE6       30.20S
LARAMIE        CLEAR     42  35  76 S8        30.18S
CHEYENNE       CLEAR     43  37  79 W6        30.15F
TORRINGTON     CLEAR     44  40  85 E8        30.11F
PINE BLUFFS    FAIR      36  34  93 W3        30.13F

$$



USA.gov is the U.S. government's official web portal to all federal, state and local government web resources and services.